User: anonymous   Login
Location: Black Creek
(40.9000°S, 175.5500°E)
Time: 23:10:15
(UTC+00:00)
Language:

Cosmos 1844 Rocket - Orbit

View from above orbital plane
View from above orbital plane
View from above satellite
View from above satellite

Ground track
Ground track

The orbit data is extracted from the following two-line orbital elements,

1 17974U 87041B   24278.56147205  .00000629  00000-0  33303-3 0  9993
2 17974  71.0089  51.4322 0016130 279.7629 153.7569 14.17499923934231
Epoch (UTC): 04 October 2024 13:28:31
Eccentricity: 0.0016130
inclination: 71.0089°
perigee height: 822 km
apogee height: 845 km
right ascension of ascending node: 51.4322°
argument of perigee: 279.7629°
revolutions per day: 14.17499923
mean anomaly at epoch: 153.7569°
orbit number at epoch: 93423

The dashed part of the orbit path shows where the satellite is in the earth's shadow,  

DLR